TimeEST,TemperatureF,Dew PointF,Humidity,Sea Level PressureIn,VisibilityMPH,Wind Direction,Wind SpeedMPH,Gust SpeedMPH,PrecipitationIn,Events,Conditions,WindDirDegrees,DateUTC
12:15 AM,68.0,55.4,64,30.06,10.0,SSE,10.4,-,N/A,,Overcast,150,2011-11-28 05:15:00
12:55 AM,69.8,55.4,60,30.05,10.0,SSE,10.4,-,N/A,,Overcast,150,2011-11-28 05:55:00
1:15 AM,69.8,55.4,60,30.04,10.0,SSE,8.1,-,N/A,,Overcast,150,2011-11-28 06:15:00
1:35 AM,69.8,55.4,60,30.04,10.0,South,13.8,19.6,N/A,,Overcast,170,2011-11-28 06:35:00
1:55 AM,64.4,59.0,83,30.03,10.0,SE,6.9,-,N/A,,Overcast,140,2011-11-28 06:55:00
2:15 AM,64.4,59.0,83,30.03,10.0,South,9.2,18.4,N/A,,Overcast,170,2011-11-28 07:15:00
2:35 AM,64.4,59.0,83,30.03,10.0,South,4.6,-,N/A,,Overcast,170,2011-11-28 07:35:00
2:55 AM,64.4,57.2,77,30.02,10.0,SSE,4.6,-,N/A,,Overcast,160,2011-11-28 07:55:00
3:15 AM,64.4,59.0,83,30.02,10.0,ESE,3.5,-,N/A,,Overcast,120,2011-11-28 08:15:00
3:35 AM,64.4,57.2,77,30.01,10.0,ESE,4.6,-,N/A,,Overcast,110,2011-11-28 08:35:00
3:55 AM,62.6,57.2,82,30.01,10.0,SE,3.5,-,N/A,,Scattered Clouds,130,2011-11-28 08:55:00
4:15 AM,62.6,57.2,82,30.01,10.0,SE,4.6,-,N/A,,Scattered Clouds,140,2011-11-28 09:15:00
4:35 AM,62.6,57.2,82,29.99,10.0,Calm,Calm,-,N/A,,Mostly Cloudy,0,2011-11-28 09:35:00
4:55 AM,60.8,55.4,82,29.99,10.0,East,3.5,-,N/A,,Mostly Cloudy,100,2011-11-28 09:55:00
5:15 AM,59.0,55.4,88,29.99,10.0,ESE,3.5,-,N/A,,Overcast,120,2011-11-28 10:15:00
5:35 AM,60.8,57.2,88,30.00,10.0,Calm,Calm,-,N/A,,Overcast,0,2011-11-28 10:35:00
5:55 AM,62.6,57.2,82,30.00,10.0,South,6.9,-,N/A,,Overcast,190,2011-11-28 10:55:00
6:15 AM,64.4,57.2,77,30.01,10.0,South,5.8,-,N/A,Rain,Rain,180,2011-11-28 11:15:00
6:35 AM,62.6,59.0,88,30.01,3.0,SSE,8.1,-,0.05,Rain,Rain,160,2011-11-28 11:35:00
6:55 AM,62.6,60.8,94,30.01,10.0,SSE,3.5,-,0.05,,Overcast,160,2011-11-28 11:55:00
7:15 AM,62.6,59.0,88,30.01,10.0,ESE,3.5,-,N/A,,Mostly Cloudy,120,2011-11-28 12:15:00
7:35 AM,62.6,60.8,94,30.01,10.0,ESE,4.6,-,N/A,,Scattered Clouds,120,2011-11-28 12:35:00
7:55 AM,62.6,60.8,94,30.01,10.0,ESE,4.6,-,N/A,,Scattered Clouds,110,2011-11-28 12:55:00
8:15 AM,64.4,60.8,88,30.01,10.0,East,4.6,-,N/A,,Scattered Clouds,100,2011-11-28 13:15:00
8:35 AM,66.2,62.6,88,30.00,10.0,ESE,6.9,-,N/A,,Scattered Clouds,120,2011-11-28 13:35:00
8:55 AM,68.0,62.6,83,30.01,10.0,ESE,8.1,-,N/A,,Scattered Clouds,110,2011-11-28 13:55:00
9:15 AM,68.0,64.4,88,30.00,10.0,SE,6.9,-,N/A,,Mostly Cloudy,130,2011-11-28 14:15:00
9:55 AM,71.6,62.6,73,30.01,10.0,SE,10.4,16.1,N/A,,Scattered Clouds,130,2011-11-28 14:55:00
10:15 AM,73.4,62.6,69,30.01,10.0,SE,11.5,16.1,N/A,,Scattered Clouds,130,2011-11-28 15:15:00
11:15 AM,71.6,62.6,73,29.99,10.0,SE,9.2,18.4,N/A,,Mostly Cloudy,140,2011-11-28 16:15:00
11:35 AM,75.2,62.6,65,29.98,10.0,SE,13.8,18.4,N/A,,Mostly Cloudy,130,2011-11-28 16:35:00
11:55 AM,73.4,62.6,69,29.97,10.0,ESE,11.5,18.4,N/A,,Overcast,120,2011-11-28 16:55:00
12:15 PM,73.4,62.6,69,29.96,10.0,ESE,12.7,-,N/A,,Mostly Cloudy,110,2011-11-28 17:15:00
12:35 PM,75.2,62.6,65,29.95,10.0,East,11.5,25.3,N/A,,Mostly Cloudy,100,2011-11-28 17:35:00
12:55 PM,71.6,62.6,73,29.95,10.0,ESE,13.8,18.4,N/A,,Overcast,110,2011-11-28 17:55:00
1:15 PM,77.0,62.6,61,29.93,10.0,SE,15.0,20.7,N/A,,Overcast,130,2011-11-28 18:15:00
1:35 PM,71.6,62.6,73,29.93,10.0,ESE,13.8,-,N/A,,Overcast,120,2011-11-28 18:35:00
1:55 PM,71.6,62.6,73,29.92,10.0,ESE,12.7,17.3,N/A,,Overcast,110,2011-11-28 18:55:00
2:15 PM,71.6,62.6,73,29.91,10.0,ESE,11.5,20.7,N/A,,Overcast,110,2011-11-28 19:15:00
2:35 PM,69.8,64.4,83,29.90,7.0,ESE,12.7,18.4,N/A,Rain,Light Rain,120,2011-11-28 19:35:00
2:55 PM,71.6,64.4,78,29.90,10.0,SE,11.5,16.1,N/A,,Overcast,140,2011-11-28 19:55:00
3:15 PM,73.4,62.6,69,29.89,10.0,SE,9.2,19.6,N/A,,Overcast,140,2011-11-28 20:15:00
3:35 PM,73.4,60.8,65,29.89,10.0,SSE,12.7,19.6,N/A,,Mostly Cloudy,150,2011-11-28 20:35:00
3:55 PM,73.4,60.8,65,29.88,10.0,SE,13.8,20.7,N/A,,Overcast,140,2011-11-28 20:55:00
4:15 PM,71.6,60.8,69,29.88,10.0,SE,17.3,-,N/A,,Overcast,140,2011-11-28 21:15:00
4:35 PM,71.6,60.8,69,29.88,10.0,SE,11.5,20.7,N/A,,Overcast,140,2011-11-28 21:35:00
4:55 PM,71.6,60.8,69,29.88,10.0,SSE,13.8,19.6,N/A,,Overcast,150,2011-11-28 21:55:00
5:15 PM,71.6,60.8,69,29.87,10.0,SE,16.1,21.9,N/A,,Overcast,140,2011-11-28 22:15:00
5:35 PM,71.6,62.6,73,29.87,10.0,SE,15.0,20.7,N/A,,Overcast,140,2011-11-28 22:35:00
5:55 PM,69.8,62.6,78,29.88,7.0,SE,18.4,26.5,0.02,Rain,Rain,140,2011-11-28 22:55:00
6:15 PM,68.0,64.4,88,29.87,4.0,SE,9.2,19.6,0.03,Rain,Light Rain,140,2011-11-28 23:15:00
6:35 PM,68.0,64.4,88,29.87,3.0,SSE,13.8,19.6,0.16,Rain,Light Rain,150,2011-11-28 23:35:00
6:55 PM,68.0,64.4,88,29.86,3.0,South,10.4,18.4,0.26,Rain,Heavy Rain,170,2011-11-28 23:55:00
7:15 PM,68.0,64.4,88,29.85,4.0,SE,10.4,17.3,0.15,Rain,Light Rain,140,2011-11-29 00:15:00
7:35 PM,68.0,64.4,88,29.85,4.0,SSW,6.9,-,0.25,Rain,Heavy Rain,200,2011-11-29 00:35:00
7:55 PM,68.0,64.4,88,29.84,10.0,SE,11.5,29.9,0.29,Rain,Light Rain,140,2011-11-29 00:55:00
8:15 PM,68.0,64.4,88,29.84,10.0,SSE,16.1,25.3,N/A,,Overcast,160,2011-11-29 01:15:00
8:55 PM,68.0,64.4,88,29.84,10.0,SSE,11.5,17.3,0.08,,Overcast,160,2011-11-29 01:55:00
9:15 PM,69.8,64.4,83,29.83,7.0,SSE,18.4,25.3,N/A,,Overcast,150,2011-11-29 02:15:00
9:35 PM,69.8,64.4,83,29.83,7.0,SSE,16.1,21.9,0.02,Rain,Rain,160,2011-11-29 02:35:00
9:55 PM,68.0,62.6,83,29.84,7.0,SW,12.7,19.6,0.06,Rain,Light Rain,220,2011-11-29 02:55:00
10:15 PM,57.2,53.6,88,29.86,4.0,West,15.0,-,0.05,Rain,Light Rain,260,2011-11-29 03:15:00
10:35 PM,55.4,53.6,94,29.86,5.0,West,12.7,23.0,0.10,Rain,Heavy Rain,260,2011-11-29 03:35:00
10:55 PM,55.4,53.6,94,29.86,5.0,West,12.7,19.6,0.12,Rain,Rain,270,2011-11-29 03:55:00
11:15 PM,53.6,51.8,94,29.89,5.0,West,13.8,21.9,0.04,Rain,Rain,270,2011-11-29 04:15:00
11:35 PM,51.8,50.0,94,29.90,4.0,West,17.3,31.1,0.09,Rain,Heavy Rain,260,2011-11-29 04:35:00
11:55 PM,51.8,48.2,88,29.91,4.0,West,16.1,25.3,0.14,Rain,Rain,270,2011-11-29 04:55:00